Theta_e
310 310 310 311 311 311 308 303 301 300 299 298 298 298 298 298 297 297 297 297 297 297 298 298 298 298 298 297 297 297 297 297 296 295 295 294 294 293 293 292 292 291
311 311 311 311 310 309 305 302 301 299 298 298 298 298 298 298 297 297 297 297 297 297 298 298 298 297 297 297 297 297 296 296 295 295 294 293 293 292 292 292 291 291
311 311 310 309 308 305 302 301 299 298 298 297 297 297 298 297 297 297 297 297 298 298 298 298 298 297 297 297 296 296 296 295 294 294 293 292 292 292 291 291 291 290
311 311 309 307 304 303 301 300 298 297 297 297 297 297 297 297 297 297 298 297 297 298 298 297 297 297 297 296 296 296 295 294 293 293 292 292 291 291 291 291 290 290
310 310 307 304 303 302 300 299 298 297 297 296 297 297 297 297 297 297 298 298 297 297 297 297 297 296 296 296 295 295 294 293 292 292 291 291 291 290 290 290 290 290
309 308 305 303 302 301 299 298 297 297 296 296 297 297 297 297 297 297 298 298 297 297 296 296 296 296 295 295 295 294 293 292 292 292 291 290 290 290 290 290 290 289
308 306 304 302 301 300 298 297 297 296 296 296 296 296 296 296 297 297 297 297 297 297 296 296 296 295 295 294 294 293 293 292 292 291 291 290 290 290 290 290 289 289
307 305 303 302 301 299 297 297 296 296 296 296 296 296 296 296 296 296 297 297 296 296 296 295 295 295 294 294 294 293 292 292 291 291 290 290 290 289 289 289 289 289
306 304 302 301 300 298 297 296 296 296 296 296 296 296 296 296 296 296 296 296 296 295 295 295 294 294 294 293 293 292 292 291 291 290 290 290 290 289 289 289 289 289
306 303 301 300 299 298 297 296 296 296 295 295 295 295 295 295 295 295 295 295 295 295 295 294 294 293 293 293 292 292 291 291 290 290 290 290 289 289 289 289 289 289
307 303 301 300 299 297 296 296 295 295 295 295 295 295 295 295 295 295 295 295 295 295 294 294 293 293 293 293 292 291 291 290 290 290 290 289 289 289 289 289 289 289
307 304 302 300 299 297 296 295 295 295 295 295 294 294 294 295 295 295 295 295 294 294 294 293 293 293 293 292 291 291 290 290 290 290 290 289 289 289 289 289 289 288
308 305 303 301 299 297 296 295 295 294 294 294 294 294 294 294 294 295 295 295 294 294 293 293 293 292 292 291 290 290 290 290 290 289 289 289 289 289 289 289 289 288
308 305 303 301 299 297 295 295 294 294 294 294 294 294 294 294 294 294 294 294 294 293 293 292 292 292 291 290 290 290 290 289 289 289 289 289 289 289 289 289 288 288
308 305 303 301 300 298 296 295 294 294 294 293 293 294 294 294 294 294 294 294 293 293 292 292 291 291 291 290 290 289 289 289 289 289 289 289 289 289 289 289 288 288
307 304 303 302 300 298 296 295 294 294 294 293 293 293 293 293 293 293 293 293 293 293 292 292 291 291 290 289 289 289 289 289 289 289 289 289 289 289 289 288 288 288
306 304 303 301 300 298 296 295 294 293 293 293 293 293 293 293 293 293 293 293 292 292 292 291 291 291 290 289 289 289 289 288 288 288 289 289 288 289 288 288 288 287
306 303 302 301 300 298 296 295 294 293 293 293 293 292 292 292 292 292 293 292 292 291 291 290 290 290 289 289 289 289 288 288 288 288 288 288 288 288 288 288 288 287
305 303 302 301 300 298 296 295 294 293 293 293 292 292 292 292 292 292 292 292 291 291 290 290 290 289 289 289 289 288 288 288 288 288 288 288 288 288 288 288 287 287
304 302 302 301 300 298 297 295 294 294 293 292 291 291 291 291 291 292 291 291 291 290 290 289 289 289 289 288 288 288 288 288 288 288 288 288 288 288 288 287 287 287
303 302 301 301 300 298 297 296 295 294 293 292 291 291 291 291 291 291 291 291 290 290 289 289 289 289 288 288 288 288 288 288 288 288 288 288 288 288 288 287 287 287
303 302 301 301 300 299 298 297 296 295 294 292 291 291 291 291 291 291 290 290 289 289 289 289 288 288 288 288 288 288 288 288 288 288 288 288 288 288 287 287 287 287
303 302 301 301 300 299 299 297 296 295 294 293 292 291 291 291 291 290 290 289 289 289 288 288 288 288 288 288 288 288 288 288 287 288 288 287 287 287 287 287 287 287
302 301 300 300 299 299 298 298 297 296 295 294 292 291 291 291 290 290 289 289 289 288 288 288 288 287 287 287 287 287 287 287 287 287 287 287 287 287 287 287 287 287
299 298 298 298 298 298 298 298 297 296 295 293 292 291 291 290 289 289 289 288 288 288 288 287 287 287 287 287 287 287 287 287 287 287 287 287 287 287 287 287 286 286
299 299 299 299 299 298 298 297 296 295 294 293 292 291 290 289 289 288 288 288 288 288 287 287 287 287 286 286 286 287 287 287 287 287 287 287 287 286 286 286 286 286
Wind_Speed
30 28 28 28 29 31 34 36 36 35 32 30 28 26 25 24 23 22 21 20 18 16 15 13 11 10 8 7 5 4 3 1 1 2 2 3 4 5 6 7 7 8
29 28 28 29 30 33 36 36 35 33 30 29 27 26 25 24 23 23 21 20 19 17 15 13 12 10 8 7 5 4 3 3 4 4 4 4 5 6 6 7 7 8
30 30 29 30 32 35 37 36 34 32 30 29 28 26 25 24 24 23 22 20 19 18 16 14 13 11 9 8 7 5 5 5 5 6 6 6 6 6 6 6 7 8
31 31 31 31 33 36 37 36 35 33 32 30 29 27 26 26 25 24 23 22 20 18 17 16 14 12 10 9 8 8 7 7 7 7 8 8 8 7 6 5 6 8
32 32 33 34 36 38 38 37 35 34 33 31 29 28 28 27 26 25 24 23 21 20 18 17 15 13 12 11 10 10 9 8 9 9 10 9 8 7 5 5 6 8
33 35 36 37 38 39 39 37 35 34 33 32 30 30 29 28 27 25 24 23 22 21 20 18 16 14 14 13 12 11 10 10 10 11 11 10 8 6 5 5 7 8
36 38 38 39 40 40 39 37 35 34 33 32 32 31 30 29 27 26 24 23 22 21 20 18 17 16 15 15 14 12 12 12 12 13 12 11 9 7 6 6 7 8
37 39 40 41 41 41 40 38 36 35 34 34 33 32 31 29 28 26 25 24 23 22 21 19 18 17 17 16 15 14 13 14 14 14 13 11 9 8 7 7 8 8
38 40 41 42 42 42 41 39 37 37 36 35 34 33 32 30 28 27 26 25 24 23 21 20 20 19 18 17 16 15 15 15 15 14 14 12 10 9 8 8 8 9
38 40 41 43 44 43 42 40 39 38 37 36 35 34 32 31 29 28 27 26 25 24 23 22 22 21 20 18 17 17 17 17 16 15 14 13 11 10 9 9 9 9
39 41 43 44 45 44 43 41 40 39 38 37 36 35 33 32 31 30 29 28 26 25 23 23 23 22 21 19 19 19 18 17 17 16 15 14 12 11 10 10 11 11
40 42 44 45 46 45 44 42 41 40 40 39 37 36 34 33 32 31 30 29 27 25 24 24 24 23 22 21 20 20 19 18 18 17 16 15 14 12 12 12 12 12
42 43 44 45 46 46 44 43 43 41 40 39 38 37 35 35 34 33 31 29 27 26 26 26 25 24 23 22 22 21 20 19 19 18 17 16 15 14 14 13 13 14
42 43 43 45 47 47 46 44 43 42 40 39 38 38 37 36 35 33 31 30 28 27 28 28 27 26 25 25 24 22 21 20 20 19 18 17 17 16 15 15 15 15
42 43 44 45 47 48 47 45 43 42 41 40 40 39 38 37 35 34 32 30 29 29 30 30 29 28 27 26 25 23 22 21 21 20 19 19 19 18 17 17 16 17
43 44 44 46 48 48 47 46 44 43 42 42 41 40 39 38 36 35 33 32 31 31 32 32 31 29 28 27 25 23 23 23 22 21 21 20 20 20 19 18 18 19
44 45 45 45 47 48 48 46 45 44 43 43 43 41 40 39 37 36 35 33 33 33 33 33 32 30 28 27 26 25 25 24 23 22 22 22 22 22 21 20 20 21
45 45 44 44 46 48 48 46 45 44 44 44 44 43 41 40 39 37 36 35 35 35 35 34 32 30 29 28 28 27 27 26 25 24 24 24 24 24 23 22 22 22
44 44 44 44 45 47 47 45 45 45 45 45 45 44 43 41 39 38 37 37 37 36 36 35 33 31 29 29 29 29 29 28 27 26 26 26 26 25 24 25 25 24
43 43 42 42 43 44 45 45 44 44 45 46 46 45 43 42 40 39 39 38 38 37 36 35 33 31 30 30 31 31 30 30 29 28 28 28 28 27 27 27 26 26
41 41 41 41 41 42 43 44 44 45 46 46 46 44 43 41 40 40 40 39 38 37 36 36 34 32 32 32 32 32 32 32 31 31 31 31 30 30 30 30 29 28
40 39 39 38 39 40 42 43 44 45 45 45 44 43 43 42 42 41 41 39 38 37 37 37 35 33 33 33 33 34 34 34 34 34 34 34 33 33 33 32 31 31
37 37 37 37 38 40 41 43 43 43 43 42 43 43 44 43 43 42 41 39 38 38 38 37 35 34 33 34 34 35 36 37 37 36 36 36 36 35 35 35 35 35
33 33 34 34 34 35 36 38 39 40 41 42 43 44 44 43 43 42 40 39 38 38 38 37 36 35 34 34 35 36 38 39 38 38 38 38 38 38 37 37 38 38
27 27 27 28 29 30 31 33 36 38 40 41 42 42 42 42 42 41 39 38 38 38 38 37 36 35 35 35 36 37 39 40 40 40 41 41 40 40 40 40 40 40
18 20 21 22 24 25 26 29 32 35 37 39 39 40 41 41 40 40 39 38 38 38 37 37 36 35 35 36 36 37 39 40 41 42 43 42 42 41 42 42 42 42
Wind_Direction
225 221 216 213 210 205 198 191 188 188 187 185 184 183 181 180 181 180 178 176 175 174 172 166 159 155 152 150 146 144 151 177 226 230 246 268 274 284 293 298 306 315
219 216 213 211 206 202 197 192 189 190 190 188 187 186 185 185 184 183 183 180 178 176 173 169 165 163 163 164 165 172 190 214 228 231 241 253 259 274 287 294 305 317
217 214 210 206 202 198 196 193 191 192 192 191 190 190 189 189 188 186 185 183 182 180 176 174 174 173 174 179 185 196 209 220 229 234 241 245 252 265 278 290 309 322
215 211 205 202 200 198 196 195 193 193 193 193 192 192 193 192 191 189 186 185 185 183 181 180 182 182 185 191 198 208 216 223 230 236 241 243 248 257 270 291 313 325
213 208 202 199 199 199 199 197 196 195 195 196 195 195 196 195 194 193 191 189 187 187 187 187 188 191 195 201 208 215 221 226 233 239 240 242 245 253 267 294 314 322
211 206 200 198 200 200 201 199 198 197 196 198 199 198 198 197 197 196 195 193 192 192 193 193 195 198 202 208 213 218 223 229 237 240 240 241 243 251 269 295 311 318
209 204 200 199 201 202 203 201 200 200 199 200 201 201 200 199 198 198 198 197 197 197 197 200 203 205 210 215 218 222 225 231 238 240 241 242 244 255 274 292 306 315
209 205 201 200 202 203 204 203 202 202 202 203 203 203 202 201 201 200 200 201 201 201 202 204 208 213 217 220 223 226 229 234 237 239 242 244 247 259 274 287 302 312
211 207 204 202 203 205 205 204 204 204 205 206 205 205 204 203 203 203 204 205 205 206 207 209 213 217 221 225 228 229 232 236 238 240 244 247 252 260 270 282 296 308
213 210 207 205 205 207 206 206 206 207 207 207 207 206 205 205 204 205 208 209 209 209 211 215 218 221 225 229 229 230 234 236 238 242 246 251 255 259 267 278 290 302
216 213 210 208 208 209 208 208 208 209 209 208 208 207 207 207 207 208 210 212 213 214 216 220 223 226 230 232 231 232 234 235 239 245 250 253 257 260 266 275 284 295
219 216 214 212 210 210 210 210 210 210 210 210 209 209 209 210 211 212 213 214 216 218 221 224 227 230 233 233 232 234 235 236 241 247 251 254 258 261 265 272 281 290
222 219 217 215 213 212 213 212 212 212 212 212 211 211 212 213 214 216 217 217 218 220 224 227 229 232 233 232 232 234 236 239 244 248 252 255 259 261 264 270 279 286
224 222 219 218 216 214 215 215 214 214 214 214 214 214 215 216 218 219 219 220 221 223 226 229 230 232 232 231 232 234 236 241 246 249 252 256 259 261 264 270 278 284
226 223 221 220 218 216 216 216 216 216 216 217 217 217 218 219 220 221 222 223 225 226 228 230 231 232 232 232 234 236 240 244 247 249 252 256 259 261 265 270 277 283
226 224 222 221 219 217 217 218 217 218 218 219 220 220 220 221 222 223 224 226 228 230 231 232 233 233 233 233 235 238 242 245 247 249 253 257 259 261 265 271 277 281
227 224 223 222 221 218 218 219 219 219 220 221 222 222 222 223 224 225 226 228 230 232 234 235 236 236 235 235 237 239 241 243 246 249 253 257 260 262 266 271 276 279
227 225 224 224 222 220 220 221 221 222 223 224 225 225 225 225 226 228 229 231 233 234 236 237 238 238 237 237 239 241 242 244 246 249 253 257 260 262 267 271 275 278
228 226 225 225 224 222 222 222 223 225 226 227 228 228 228 228 229 231 232 234 236 237 238 239 240 239 238 239 242 243 245 246 247 250 254 257 260 263 267 270 274 278
228 228 227 227 226 225 225 225 226 228 230 230 231 231 231 232 233 234 236 237 238 240 241 242 242 241 240 242 244 245 247 249 250 251 255 257 259 263 267 270 274 278
229 229 230 230 229 228 228 229 230 232 233 233 233 234 236 237 238 239 240 241 242 243 244 246 246 244 243 244 246 247 249 251 252 253 255 258 260 263 267 270 274 277
232 232 233 233 233 233 232 233 234 235 236 235 236 238 240 241 242 243 244 244 245 246 247 249 249 247 246 247 247 248 249 252 254 255 257 260 262 265 268 271 274 277
236 236 236 236 236 236 236 237 238 239 240 240 240 241 242 244 245 246 246 246 247 249 250 252 253 251 250 250 249 249 250 253 257 259 260 263 265 267 270 272 275 278
240 240 240 241 242 243 244 245 245 245 245 244 243 244 245 247 248 248 249 249 251 253 254 255 256 255 254 253 252 251 252 255 259 262 264 266 267 269 271 273 276 278
243 244 246 247 249 250 251 252 251 250 248 246 246 246 247 249 250 250 252 253 255 256 257 257 258 258 257 256 254 253 254 257 260 263 265 267 269 271 273 275 276 279
245 246 248 248 250 252 254 256 255 253 251 249 249 249 250 250 251 252 254 255 257 259 260 260 261 261 260 259 257 256 256 258 260 263 265 268 271 273 275 277 278 280